• în Republica Moldova
  • Lista ţărilor
  • Pe 7 zile
  • Temperatura apei
  • Hartă satelitară
  • Meteo pe hartă
  • Widget-uri
  • user-avatar
    Intrare

    Meteo pe oră la Djelfa

    Astăzi, 17 Octombrie, Marţi

    Timp Temperatura Precipitaţii Vânt Presiune Umiditate
    00:00 +15°C° 0 mm 2 m/s 671 mmHg 55%
    01:00 +15°C° 0 mm 2 m/s 670 mmHg 56%
    02:00 +14°C° 0 mm 2 m/s 670 mmHg 57%
    03:00 +14°C° 0 mm 2 m/s 670 mmHg 58%
    04:00 +13°C° 0 mm 2 m/s 670 mmHg 60%
    05:00 +13°C° 0 mm 1 m/s 670 mmHg 61%
    06:00 +12°C° 0 mm 1 m/s 669 mmHg 62%
    07:00 +14°C° 0 mm 1 m/s 670 mmHg 56%
    08:00 +16°C° 0 mm 1 m/s 671 mmHg 50%
    09:00 +17°C° 0 mm 2 m/s 671 mmHg 44%
    10:00 +19°C° 0 mm 1 m/s 671 mmHg 40%
    11:00 +20°C° 0 mm 1 m/s 671 mmHg 36%
    12:00 +19°C° 0 mm 0 m/s 671 mmHg 32%
    13:00 +19°C° 0 mm 0 m/s 671 mmHg 30%
    14:00 +20°C° 0 mm 0 m/s 670 mmHg 28%
    15:00 +22°C° 0 mm 1 m/s 670 mmHg 26%
    16:00 +22°C° 0 mm 1 m/s 670 mmHg 27%
    17:00 +21°C° 0 mm 1 m/s 669 mmHg 29%
    18:00 +20°C° 0 mm 1 m/s 669 mmHg 30%
    19:00 +19°C° 0 mm 2 m/s 669 mmHg 32%
    20:00 +18°C° 0 mm 2 m/s 669 mmHg 34%
    21:00 +17°C° 0 mm 3 m/s 669 mmHg 36%
    22:00 +17°C° 0 mm 3 m/s 669 mmHg 38%
    23:00 +16°C° 0 mm 3 m/s 669 mmHg 39%

    Mâine, 18 Octombrie, Miercuri

    Timp Temperatura Precipitaţii Vânt Presiune Umiditate
    00:00 +16°C° 0 mm 3 m/s 669 mmHg 41%
    01:00 +15°C° 0 mm 2 m/s 668 mmHg 42%
    02:00 +15°C° 0 mm 2 m/s 668 mmHg 42%
    03:00 +14°C° 0 mm 2 m/s 667 mmHg 43%
    04:00 +14°C° 0 mm 2 m/s 667 mmHg 43%
    05:00 +14°C° 0 mm 2 m/s 667 mmHg 44%
    06:00 +13°C° 0 mm 2 m/s 667 mmHg 44%
    07:00 +15°C° 0 mm 2 m/s 667 mmHg 39%
    08:00 +17°C° 0 mm 2 m/s 668 mmHg 35%
    09:00 +19°C° 0 mm 3 m/s 668 mmHg 30%
    10:00 +20°C° 0 mm 3 m/s 668 mmHg 27%
    11:00 +21°C° 0 mm 3 m/s 668 mmHg 25%
    12:00 +22°C° 0 mm 4 m/s 668 mmHg 23%
    13:00 +22°C° 0 mm 4 m/s 667 mmHg 22%
    14:00 +22°C° 0 mm 4 m/s 667 mmHg 22%
    15:00 +22°C° 0 mm 4 m/s 666 mmHg 22%
    16:00 +21°C° 0 mm 3 m/s 666 mmHg 24%
    17:00 +21°C° 0 mm 3 m/s 666 mmHg 26%
    18:00 +20°C° 0 mm 2 m/s 666 mmHg 29%
    19:00 +19°C° 0 mm 2 m/s 666 mmHg 30%
    20:00 +19°C° 0 mm 2 m/s 666 mmHg 32%
    21:00 +18°C° 0 mm 2 m/s 666 mmHg 33%
    22:00 +18°C° 0 mm 3 m/s 666 mmHg 34%
    23:00 +18°C° 0 mm 4 m/s 666 mmHg 35%

    Poimâine, 19 Octombrie, Joi

    Timp Temperatura Precipitaţii Vânt Presiune Umiditate
    00:00 +18°C° 0 mm 4 m/s 665 mmHg 36%
    01:00 +17°C° 0 mm 4 m/s 665 mmHg 39%
    02:00 +17°C° 0 mm 4 m/s 665 mmHg 41%
    03:00 +15°C° 0 mm 4 m/s 664 mmHg 43%
    04:00 +16°C° 0 mm 3 m/s 664 mmHg 48%
    05:00 +14°C° 0 mm 3 m/s 664 mmHg 53%
    06:00 +13°C° 0 mm 3 m/s 664 mmHg 59%
    07:00 +14°C° 0,1 mm 4 m/s 664 mmHg 54%
    08:00 +15°C° 0,1 mm 5 m/s 664 mmHg 49%
    09:00 +16°C° 0,1 mm 6 m/s 665 mmHg 44%
    10:00 +17°C° 0,1 mm 7 m/s 664 mmHg 40%
    11:00 +18°C° 0,1 mm 8 m/s 664 mmHg 36%
    12:00 +19°C° 0,1 mm 9 m/s 664 mmHg 32%
    13:00 +18°C° 0,4 mm 8 m/s 664 mmHg 37%
    14:00 +17°C° 0,4 mm 8 m/s 663 mmHg 42%
    15:00 +16°C° 0,4 mm 7 m/s 663 mmHg 47%
    16:00 +15°C° 2,7 mm 7 m/s 663 mmHg 58%
    17:00 +13°C° 2,7 mm 6 m/s 663 mmHg 68%
    18:00 +10°C° 2,7 mm 5 m/s 662 mmHg 78%
    19:00 +12°C° 1,4 mm 4 m/s 663 mmHg 77%
    20:00 +12°C° 1,4 mm 4 m/s 664 mmHg 76%
    21:00 +12°C° 1,4 mm 3 m/s 664 mmHg 75%
    22:00 +12°C° 0,3 mm 3 m/s 664 mmHg 75%
    23:00 +12°C° 0,3 mm 4 m/s 664 mmHg 75%

    20 Octombrie, Vineri

    Timp Temperatura Precipitaţii Vânt Presiune Umiditate
    00:00 +12°C° 0,3 mm 4 m/s 664 mmHg 76%
    01:00 +12°C° 0,1 mm 4 m/s 664 mmHg 75%
    02:00 +11°C° 0,1 mm 4 m/s 664 mmHg 75%
    03:00 +10°C° 0,1 mm 5 m/s 663 mmHg 75%
    04:00 +9°C° 0 mm 5 m/s 663 mmHg 75%
    05:00 +9°C° 0 mm 5 m/s 663 mmHg 74%
    06:00 +9°C° 0 mm 5 m/s 663 mmHg 74%
    07:00 +10°C° 0 mm 6 m/s 664 mmHg 68%
    08:00 +10°C° 0 mm 6 m/s 665 mmHg 61%
    09:00 +11°C° 0 mm 6 m/s 665 mmHg 55%
    10:00 +13°C° 0 mm 6 m/s 665 mmHg 51%
    11:00 +14°C° 0 mm 6 m/s 665 mmHg 47%
    12:00 +15°C° 0 mm 7 m/s 666 mmHg 43%
    13:00 +15°C° 0 mm 7 m/s 666 mmHg 41%
    14:00 +16°C° 0 mm 7 m/s 665 mmHg 40%
    15:00 +16°C° 0 mm 7 m/s 665 mmHg 38%
    16:00 +15°C° 0 mm 6 m/s 666 mmHg 41%
    17:00 +15°C° 0 mm 6 m/s 666 mmHg 43%
    18:00 +14°C° 0 mm 5 m/s 666 mmHg 46%
    19:00 +14°C° 0 mm 5 m/s 667 mmHg 51%
    20:00 +14°C° 0 mm 5 m/s 667 mmHg 57%
    21:00 +13°C° 0 mm 5 m/s 667 mmHg 62%
    22:00 +13°C° 0 mm 5 m/s 667 mmHg 66%
    23:00 +12°C° 0 mm 4 m/s 667 mmHg 70%

    21 Octombrie, Sâmbătă

    Timp Temperatura Precipitaţii Vânt Presiune Umiditate
    00:00 +12°C° 0 mm 4 m/s 667 mmHg 74%
    01:00 +12°C° 0 mm 3 m/s 667 mmHg 76%
    02:00 +11°C° 0 mm 3 m/s 667 mmHg 77%
    03:00 +12°C° 0 mm 2 m/s 666 mmHg 79%
    04:00 +12°C° 0 mm 2 m/s 667 mmHg 80%
    05:00 +12°C° 0 mm 2 m/s 667 mmHg 80%
    06:00 +10°C° 0 mm 2 m/s 667 mmHg 81%
    07:00 +13°C° 0 mm 2 m/s 667 mmHg 74%
    08:00 +14°C° 0 mm 2 m/s 668 mmHg 68%
    09:00 +15°C° 0 mm 1 m/s 669 mmHg 61%
    10:00 +16°C° 0 mm 1 m/s 669 mmHg 57%
    11:00 +18°C° 0 mm 1 m/s 669 mmHg 53%
    12:00 +20°C° 0 mm 1 m/s 669 mmHg 49%
    13:00 +20°C° 0 mm 1 m/s 669 mmHg 47%
    14:00 +21°C° 0 mm 1 m/s 668 mmHg 45%
    15:00 +21°C° 0 mm 1 m/s 668 mmHg 43%
    16:00 +21°C° 0 mm 1 m/s 668 mmHg 46%
    17:00 +20°C° 0 mm 1 m/s 669 mmHg 48%
    18:00 +20°C° 0 mm 1 m/s 669 mmHg 51%
    19:00 +19°C° 0 mm 1 m/s 669 mmHg 53%
    20:00 +17°C° 0 mm 2 m/s 669 mmHg 56%
    21:00 +17°C° 0 mm 2 m/s 669 mmHg 58%
    22:00 +17°C° 0 mm 2 m/s 669 mmHg 61%
    23:00 +16°C° 0 mm 2 m/s 669 mmHg 63%

    22 Octombrie, Duminică

    Timp Temperatura Precipitaţii Vânt Presiune Umiditate
    00:00 +16°C° 0 mm 2 m/s 668 mmHg 65%
    01:00 +15°C° 0 mm 2 m/s 668 mmHg 67%
    02:00 +15°C° 0 mm 2 m/s 668 mmHg 69%
    03:00 +15°C° 0 mm 1 m/s 668 mmHg 71%
    04:00 +14°C° 0 mm 1 m/s 668 mmHg 72%
    05:00 +14°C° 0 mm 1 m/s 668 mmHg 73%
    06:00 +14°C° 0 mm 1 m/s 668 mmHg 73%
    07:00 +15°C° 0 mm 2 m/s 669 mmHg 66%
    08:00 +17°C° 0 mm 2 m/s 669 mmHg 59%
    09:00 +18°C° 0 mm 2 m/s 670 mmHg 51%
    10:00 +19°C° 0 mm 2 m/s 670 mmHg 45%
    11:00 +20°C° 0 mm 2 m/s 670 mmHg 39%
    12:00 +21°C° 0 mm 2 m/s 670 mmHg 33%
    13:00 +21°C° 0 mm 2 m/s 670 mmHg 31%
    14:00 +23°C° 0 mm 2 m/s 669 mmHg 29%
    15:00 +23°C° 0 mm 2 m/s 669 mmHg 27%
    16:00 +21°C° 0 mm 2 m/s 669 mmHg 31%
    17:00 +20°C° 0 mm 2 m/s 669 mmHg 34%
    18:00 +19°C° 0 mm 2 m/s 669 mmHg 37%
    19:00 +19°C° 0 mm 2 m/s 669 mmHg 39%
    20:00 +18°C° 0 mm 2 m/s 669 mmHg 42%
    21:00 +18°C° 0 mm 1 m/s 669 mmHg 44%
    22:00 +18°C° 0 mm 1 m/s 669 mmHg 46%
    23:00 +18°C° 0 mm 1 m/s 669 mmHg 48%
    Arată mai mult